User: anonymous   Login
Location: Unspecified
(0.0000°N, 0.0000°E)
Time: 14:49:58
(UTC+00:00)
Language:

Tiros 1 despin weight - Orbit

View from above orbital plane
View from above orbital plane
View from above satellite
View from above satellite

Ground track
Ground track

The orbit data is extracted from the following two-line orbital elements,

1   115U 60002D   19051.94170236 +.00000213 +00000-0 +52455-4 0  9994
2   115 048.1686 074.1046 0035131 282.9606 076.7362 14.83399955141340
Epoch (UTC): 20 February 2019 22:36:03
Eccentricity: 0.0035131
inclination: 48.1686°
perigee height: 594 km
apogee height: 643 km
right ascension of ascending node: 74.1046°
argument of perigee: 282.9606°
revolutions per day: 14.83399955
mean anomaly at epoch: 76.7362°
orbit number at epoch: 14134

The dashed part of the orbit path shows where the satellite is in the earth's shadow,  

DLR